Hourly Weather Krachanivka

Today, 23 October, Friday

Time Temperature Precipitation Wind Pressure Humidity
00:00 +12°C° 0 mm 2 mps 739 mmHg 76%
01:00 +12°C° 0 mm 2 mps 739 mmHg 74%
02:00 +10°C° 0 mm 2 mps 739 mmHg 73%
03:00 +10°C° 0 mm 2 mps 739 mmHg 72%
04:00 +11°C° 0 mm 1 mps 739 mmHg 72%
05:00 +11°C° 0 mm 1 mps 738 mmHg 72%
06:00 +10°C° 0 mm 2 mps 738 mmHg 72%
07:00 +10°C° 0 mm 2 mps 738 mmHg 73%
08:00 +10°C° 0 mm 2 mps 738 mmHg 73%
09:00 +13°C° 0 mm 2 mps 738 mmHg 68%
10:00 +14°C° 0 mm 3 mps 738 mmHg 62%
11:00 +16°C° 0 mm 3 mps 738 mmHg 57%
12:00 +17°C° 0 mm 3 mps 737 mmHg 56%
13:00 +17°C° 0 mm 3 mps 737 mmHg 55%
14:00 +17°C° 0 mm 3 mps 737 mmHg 54%
15:00 +16°C° 0 mm 3 mps 736 mmHg 59%
16:00 +15°C° 0 mm 2 mps 736 mmHg 65%
17:00 +14°C° 0 mm 2 mps 736 mmHg 71%
18:00 +14°C° 0 mm 2 mps 736 mmHg 73%
19:00 +14°C° 0 mm 2 mps 736 mmHg 74%
20:00 +13°C° 0 mm 2 mps 736 mmHg 76%
21:00 +13°C° 0 mm 2 mps 736 mmHg 79%
22:00 +13°C° 0 mm 2 mps 736 mmHg 81%
23:00 +12°C° 0 mm 2 mps 736 mmHg 83%

Tomorrow, 24 October, Saturday

Time Temperature Precipitation Wind Pressure Humidity
00:00 +12°C° 0 mm 2 mps 736 mmHg 84%
01:00 +12°C° 0 mm 2 mps 736 mmHg 85%
02:00 +12°C° 0 mm 2 mps 736 mmHg 85%
03:00 +12°C° 0 mm 2 mps 735 mmHg 84%
04:00 +10°C° 0 mm 2 mps 735 mmHg 83%
05:00 +11°C° 0 mm 1 mps 735 mmHg 82%
06:00 +10°C° 0 mm 2 mps 735 mmHg 81%
07:00 +12°C° 0 mm 2 mps 735 mmHg 80%
08:00 +12°C° 0 mm 2 mps 735 mmHg 78%
09:00 +12°C° 0 mm 2 mps 735 mmHg 76%
10:00 +13°C° 0 mm 2 mps 735 mmHg 73%
11:00 +14°C° 0 mm 2 mps 735 mmHg 71%
12:00 +14°C° 0 mm 2 mps 734 mmHg 72%
13:00 +14°C° 0 mm 2 mps 734 mmHg 73%
14:00 +13°C° 0 mm 2 mps 734 mmHg 74%
15:00 +13°C° 0 mm 2 mps 734 mmHg 75%
16:00 +13°C° 0 mm 2 mps 734 mmHg 76%
17:00 +11°C° 0 mm 3 mps 734 mmHg 77%
18:00 +11°C° 0 mm 3 mps 735 mmHg 81%
19:00 +11°C° 0 mm 3 mps 735 mmHg 84%
20:00 +11°C° 0 mm 3 mps 735 mmHg 87%
21:00 +11°C° 0 mm 4 mps 736 mmHg 89%
22:00 +11°C° 0 mm 4 mps 736 mmHg 90%
23:00 +11°C° 0 mm 4 mps 736 mmHg 91%

Day after tomorrow, 25 October, Sunday

Time Temperature Precipitation Wind Pressure Humidity
00:00 +11°C° 0 mm 4 mps 737 mmHg 90%
01:00 +10°C° 0 mm 5 mps 737 mmHg 88%
02:00 +10°C° 0 mm 5 mps 737 mmHg 87%
03:00 +10°C° 0 mm 4 mps 738 mmHg 90%
04:00 +9°C° 0 mm 3 mps 738 mmHg 93%
05:00 +8°C° 0 mm 3 mps 738 mmHg 96%
06:00 +8°C° 0 mm 3 mps 739 mmHg 96%
07:00 +8°C° 0 mm 3 mps 739 mmHg 96%
08:00 +9°C° 0 mm 2 mps 739 mmHg 96%
09:00 +10°C° 0 mm 2 mps 739 mmHg 92%
10:00 +12°C° 0 mm 2 mps 740 mmHg 87%
11:00 +13°C° 0 mm 2 mps 740 mmHg 82%
12:00 +13°C° 0 mm 2 mps 740 mmHg 79%
13:00 +14°C° 0 mm 2 mps 740 mmHg 76%
14:00 +15°C° 0 mm 2 mps 740 mmHg 73%
15:00 +14°C° 0 mm 2 mps 740 mmHg 77%
16:00 +13°C° 0 mm 2 mps 740 mmHg 82%
17:00 +12°C° 0 mm 2 mps 739 mmHg 86%
18:00 +10°C° 0 mm 2 mps 740 mmHg 88%
19:00 +9°C° 0 mm 2 mps 740 mmHg 91%
20:00 +9°C° 0 mm 2 mps 740 mmHg 93%
21:00 +9°C° 0 mm 2 mps 740 mmHg 94%
22:00 +8°C° 0 mm 2 mps 740 mmHg 94%
23:00 +8°C° 0 mm 2 mps 740 mmHg 95%

, 26 October, Monday

Time Temperature Precipitation Wind Pressure Humidity
00:00 +8°C° 0 mm 2 mps 740 mmHg 95%
01:00 +8°C° 0 mm 2 mps 740 mmHg 95%
02:00 +7°C° 0 mm 3 mps 740 mmHg 95%
03:00 +7°C° 0 mm 3 mps 740 mmHg 95%
04:00 +7°C° 0 mm 3 mps 740 mmHg 95%
05:00 +7°C° 0 mm 3 mps 740 mmHg 96%
06:00 +7°C° 0 mm 3 mps 740 mmHg 95%
07:00 +7°C° 0 mm 4 mps 739 mmHg 94%
08:00 +7°C° 0 mm 4 mps 739 mmHg 93%
09:00 +8°C° 0 mm 5 mps 739 mmHg 87%
10:00 +10°C° 0 mm 5 mps 739 mmHg 81%
11:00 +11°C° 0 mm 6 mps 739 mmHg 74%
12:00 +13°C° 0 mm 6 mps 739 mmHg 73%
13:00 +13°C° 0 mm 6 mps 739 mmHg 72%
14:00 +14°C° 0 mm 6 mps 738 mmHg 72%
15:00 +13°C° 0 mm 5 mps 738 mmHg 74%
16:00 +13°C° 0 mm 5 mps 737 mmHg 76%
17:00 +12°C° 0 mm 5 mps 737 mmHg 79%
18:00 +13°C° 0 mm 5 mps 737 mmHg 79%
19:00 +13°C° 0 mm 5 mps 737 mmHg 80%
20:00 +13°C° 0 mm 6 mps 737 mmHg 81%
21:00 +13°C° 0.1 mm 6 mps 737 mmHg 81%
22:00 +12°C° 0.1 mm 5 mps 737 mmHg 82%
23:00 +12°C° 0.1 mm 5 mps 737 mmHg 83%

26 October, Monday

Time Temperature Precipitation Wind Pressure Humidity
00:00 +8°C° 0 mm 2 mps 740 mmHg 95%
01:00 +8°C° 0 mm 2 mps 740 mmHg 95%
02:00 +7°C° 0 mm 3 mps 740 mmHg 95%
03:00 +7°C° 0 mm 3 mps 740 mmHg 95%
04:00 +7°C° 0 mm 3 mps 740 mmHg 95%
05:00 +7°C° 0 mm 3 mps 740 mmHg 96%
06:00 +7°C° 0 mm 3 mps 740 mmHg 95%
07:00 +7°C° 0 mm 4 mps 739 mmHg 94%
08:00 +7°C° 0 mm 4 mps 739 mmHg 93%
09:00 +8°C° 0 mm 5 mps 739 mmHg 87%
10:00 +10°C° 0 mm 5 mps 739 mmHg 81%
11:00 +11°C° 0 mm 6 mps 739 mmHg 74%
12:00 +13°C° 0 mm 6 mps 739 mmHg 73%
13:00 +13°C° 0 mm 6 mps 739 mmHg 72%
14:00 +14°C° 0 mm 6 mps 738 mmHg 72%
15:00 +13°C° 0 mm 5 mps 738 mmHg 74%
16:00 +13°C° 0 mm 5 mps 737 mmHg 76%
17:00 +12°C° 0 mm 5 mps 737 mmHg 79%
18:00 +13°C° 0 mm 5 mps 737 mmHg 79%
19:00 +13°C° 0 mm 5 mps 737 mmHg 80%
20:00 +13°C° 0 mm 6 mps 737 mmHg 81%
21:00 +13°C° 0.1 mm 6 mps 737 mmHg 81%
22:00 +12°C° 0.1 mm 5 mps 737 mmHg 82%
23:00 +12°C° 0.1 mm 5 mps 737 mmHg 83%

27 October, Tuesday

Time Temperature Precipitation Wind Pressure Humidity
00:00 +12°C° 0 mm 5 mps 737 mmHg 83%
01:00 +12°C° 0 mm 5 mps 737 mmHg 84%
02:00 +12°C° 0 mm 4 mps 737 mmHg 84%
03:00 +12°C° 0 mm 4 mps 737 mmHg 86%
04:00 +11°C° 0 mm 4 mps 737 mmHg 87%
05:00 +11°C° 0 mm 4 mps 737 mmHg 89%
06:00 +11°C° 0 mm 4 mps 737 mmHg 89%
07:00 +11°C° 0 mm 4 mps 737 mmHg 90%
08:00 +11°C° 0 mm 4 mps 737 mmHg 90%
09:00 +12°C° 0 mm 4 mps 737 mmHg 87%
10:00 +13°C° 0 mm 4 mps 738 mmHg 84%
11:00 +14°C° 0 mm 4 mps 738 mmHg 81%
12:00 +15°C° 0 mm 4 mps 738 mmHg 79%
13:00 +17°C° 0 mm 3 mps 738 mmHg 76%
14:00 +17°C° 0 mm 3 mps 738 mmHg 74%
15:00 +17°C° 0 mm 3 mps 738 mmHg 77%
16:00 +16°C° 0 mm 3 mps 737 mmHg 81%
17:00 +16°C° 0 mm 2 mps 737 mmHg 84%
18:00 +15°C° 0 mm 2 mps 737 mmHg 87%
19:00 +14°C° 0 mm 3 mps 737 mmHg 89%
20:00 +13°C° 0 mm 3 mps 737 mmHg 91%
21:00 +13°C° 0 mm 3 mps 737 mmHg 89%
22:00 +13°C° 0 mm 3 mps 737 mmHg 87%
23:00 +14°C° 0 mm 4 mps 737 mmHg 85%

28 October, Wednesday

Time Temperature Precipitation Wind Pressure Humidity
00:00 +13°C° 0 mm 4 mps 737 mmHg 84%
01:00 +13°C° 0 mm 4 mps 737 mmHg 84%
02:00 +12°C° 0 mm 4 mps 737 mmHg 83%
03:00 +12°C° 0 mm 4 mps 737 mmHg 85%
04:00 +11°C° 0 mm 4 mps 737 mmHg 87%
05:00 +11°C° 0 mm 4 mps 737 mmHg 88%
06:00 +11°C° 0 mm 4 mps 737 mmHg 88%
07:00 +11°C° 0 mm 4 mps 737 mmHg 89%
08:00 +11°C° 0 mm 4 mps 737 mmHg 89%
09:00 +12°C° 0 mm 4 mps 737 mmHg 85%
10:00 +13°C° 0 mm 4 mps 737 mmHg 80%
11:00 +14°C° 0 mm 4 mps 737 mmHg 76%
12:00 +15°C° 0 mm 4 mps 737 mmHg 75%
13:00 +15°C° 0 mm 4 mps 737 mmHg 74%
14:00 +17°C° 0 mm 3 mps 737 mmHg 73%
15:00 +16°C° 0 mm 3 mps 737 mmHg 76%
16:00 +14°C° 0 mm 3 mps 736 mmHg 79%
17:00 +13°C° 0 mm 3 mps 736 mmHg 81%
18:00 +12°C° 0 mm 3 mps 736 mmHg 82%
19:00 +12°C° 0 mm 3 mps 736 mmHg 83%
20:00 +11°C° 0 mm 3 mps 736 mmHg 84%
21:00 +10°C° 0 mm 3 mps 736 mmHg 84%
22:00 +10°C° 0 mm 3 mps 736 mmHg 85%
23:00 +10°C° 0 mm 2 mps 736 mmHg 85%
Show more